Wind_Speed
4 4 3 3 3 2 2 2 2 2 2 1 0 1 1 1 1 1 1 1 1 1 1 1 1 2 1 1 2 2 2 3 3 4 5 5 6 6 7 7 8 8 9
4 4 3 3 3 3 3 3 3 2 1 1 0 1 1 1 2 2 2 2 1 1 2 2 2 2 2 2 2 2 3 3 4 4 5 5 6 6 6 7 8 9 10
5 4 3 2 2 2 2 2 2 1 1 1 2 2 2 2 3 2 3 3 2 2 2 2 2 2 2 2 3 3 3 4 4 5 6 6 7 7 8 7 8 8 9
4 4 3 2 2 1 1 1 1 1 1 2 2 2 2 3 3 3 3 3 3 3 4 4 4 3 3 4 4 4 5 5 6 6 7 7 7 8 8 8 8 7 8
4 5 4 3 2 2 2 2 2 2 2 3 3 3 4 4 4 4 4 4 4 5 5 5 5 5 4 4 5 5 6 6 6 7 7 7 7 8 9 9 9 9 9
5 5 5 4 3 3 3 3 3 4 4 4 4 5 5 5 5 5 5 5 6 6 6 7 7 6 6 6 6 6 7 7 8 8 8 8 8 8 9 10 10 10 11
6 6 6 6 4 4 4 4 4 4 5 5 5 5 6 7 6 7 7 7 7 7 8 8 8 7 7 8 8 8 8 9 9 10 10 9 9 9 9 10 11 11 11
6 6 6 6 6 6 6 6 5 5 5 6 6 6 7 8 8 8 8 8 9 9 9 9 9 9 9 10 10 10 10 11 11 11 11 10 11 10 10 11 11 11 12
6 7 7 7 7 7 7 7 6 6 7 7 7 8 8 8 8 9 9 9 10 11 11 11 11 11 11 11 12 12 12 12 12 12 12 12 12 12 12 12 12 12 13
7 7 7 7 7 7 7 7 8 7 7 7 8 8 9 9 9 10 10 11 12 12 13 13 13 12 12 13 13 13 14 14 14 14 14 13 13 13 14 13 13 13 13
8 7 7 7 7 7 7 7 8 8 8 8 9 9 9 10 10 10 11 12 13 14 14 14 14 14 14 14 14 15 16 16 16 15 14 15 15 15 15 14 14 14 15
9 9 8 8 8 8 8 8 9 9 10 10 10 10 10 11 11 12 12 13 13 14 14 14 14 15 15 16 16 17 17 17 17 16 16 15 15 15 15 15 15 15 15
10 9 9 9 10 10 10 10 10 11 11 11 11 11 12 13 13 13 14 14 14 14 15 15 16 16 16 16 17 18 18 18 18 17 16 16 16 16 16 16 16 16 16
11 11 10 10 11 11 11 12 12 12 12 13 13 13 13 14 14 15 15 16 16 17 17 18 17 17 17 17 17 18 18 19 18 17 17 17 17 17 17 18 18 18 18
12 13 13 12 12 12 13 13 13 13 13 14 14 15 15 15 16 17 17 17 18 18 19 19 19 19 20 20 20 20 20 19 19 19 19 19 19 18 19 19 19 20 20
14 14 13 14 14 14 14 14 14 14 14 15 16 17 17 18 18 19 19 19 19 19 18 20 20 21 21 22 22 22 22 21 22 21 20 21 21 21 21 21 21 21 21
16 15 15 15 15 15 16 16 17 17 17 17 18 18 19 20 20 21 21 21 21 21 20 21 21 22 22 22 22 22 22 23 23 22 22 23 23 23 23 23 22 23 23
17 17 18 18 18 18 18 19 19 19 19 19 20 20 20 21 21 21 21 22 22 22 22 22 22 23 23 23 22 23 23 23 23 23 23 23 23 24 24 24 24 23 23
19 19 20 20 20 20 20 20 21 21 21 21 21 21 21 21 22 22 22 22 22 22 23 23 23 23 23 24 24 24 23 24 24 24 25 25 25 25 25 25 24 24 23
21 21 21 22 22 22 22 22 22 22 22 22 22 22 22 22 22 21 22 22 23 23 23 23 23 24 25 24 24 25 25 25 25 26 26 27 27 27 27 26 26 25 25
23 24 24 24 24 24 24 24 23 23 23 23 23 23 23 23 23 22 22 23 23 23 23 23 24 24 24 24 25 25 25 25 26 26 26 27 28 28 28 27 26 26 26
25 25 25 26 26 25 24 25 25 24 24 24 24 24 24 24 24 24 24 24 24 24 23 23 24 24 25 24 25 25 25 25 26 26 27 27 28 28 28 28 28 28 26
26 25 26 26 26 26 26 26 26 26 26 25 25 24 24 25 25 25 25 24 24 25 25 24 24 24 24 24 25 25 26 26 26 26 27 27 28 28 28 28 28 28 28
26 26 26 25 27 28 28 28 29 28 27 27 26 26 26 26 26 25 25 25 25 26 25 25 24 24 24 24 24 24 25 26 26 25 26 27 27 28 28 28 27 28 28
26 26 26 26 26 27 28 28 29 29 28 28 27 27 26 26 25 25 25 25 25 25 25 25 25 24 24 24 25 25 26 26 26 25 26 27 27 28 29 29 28 29 29
26 26 26 26 26 26 26 26 27 27 27 27 27 27 26 26 26 26 26 26 26 26 26 26 25 25 25 25 25 26 26 26 26 26 26 27 27 28 29 29 29 29 29
Wind_Direction
54 53 58 68 82 85 68 64 63 73 70 65 224 249 266 277 229 221 242 220 232 341 318 310 320 324 323 317 312 295 280 284 282 280 279 277 268 263 261 257 257 259 258
51 54 57 64 75 81 68 69 63 61 55 61 12 321 287 260 278 255 268 291 290 310 307 300 309 319 312 295 298 290 281 283 282 283 283 283 274 269 266 264 265 266 263
41 40 49 55 59 66 65 57 43 23 23 23 354 329 311 297 294 287 289 293 298 300 300 296 295 307 309 311 301 291 291 287 282 285 287 286 280 271 268 269 271 271 268
22 17 16 25 20 7 16 357 343 357 346 343 326 317 317 324 312 303 297 289 292 294 296 294 290 294 298 303 306 300 297 293 284 281 284 287 286 279 270 271 270 271 271
359 359 358 358 349 324 308 302 305 305 306 313 310 308 310 307 301 292 289 290 290 288 286 289 288 290 291 291 293 292 293 295 292 288 285 284 285 280 274 270 271 272 271
341 342 350 347 330 311 297 296 294 289 292 295 297 298 299 298 290 285 285 289 287 283 281 281 280 282 288 285 289 291 292 292 293 293 291 288 286 285 278 273 273 274 274
332 329 333 339 325 313 301 295 296 288 286 289 291 292 292 290 288 283 278 281 284 284 278 275 276 277 281 284 287 290 290 290 291 291 290 289 288 289 282 281 277 276 274
331 339 335 331 324 309 312 308 301 295 289 288 289 287 287 287 285 285 281 278 278 281 279 278 278 276 275 279 282 287 289 289 287 284 285 283 282 284 285 284 282 278 274
331 333 332 329 323 313 303 297 295 291 292 293 292 291 289 288 284 285 284 282 281 284 280 276 276 281 280 279 281 284 287 288 285 282 279 280 279 279 280 279 278 276 274
324 325 325 324 320 309 302 298 299 293 295 297 296 293 291 287 281 279 279 279 281 283 282 277 276 279 281 282 281 282 285 285 285 283 278 276 277 277 277 276 276 276 275
322 320 317 319 320 313 305 300 300 297 297 295 294 291 287 285 283 280 279 279 281 280 280 279 279 277 280 280 282 284 285 285 284 284 282 278 275 277 277 275 274 275 275
316 316 315 312 309 306 303 301 299 297 293 293 292 290 289 286 281 282 283 282 283 282 281 279 279 277 278 280 282 284 284 285 283 282 282 281 277 277 276 274 272 272 273
311 311 307 303 301 298 297 298 299 297 296 294 293 291 290 289 287 286 285 284 283 282 281 278 277 277 279 280 280 282 284 285 282 280 279 279 277 278 276 275 273 271 270
302 303 303 302 301 295 290 291 295 294 294 293 292 293 292 291 290 289 286 283 282 281 280 277 276 278 280 281 281 281 283 284 280 279 276 274 274 275 275 273 272 274 273
297 297 297 297 298 297 294 292 291 291 291 292 291 292 291 292 292 292 289 286 284 283 280 278 276 278 280 279 281 280 281 281 280 280 277 274 274 276 277 275 274 275 274
295 296 296 297 297 295 295 296 295 295 293 291 290 289 290 292 292 292 291 289 287 285 282 283 279 277 278 280 279 279 280 280 280 279 278 275 275 275 276 276 275 274 275
295 295 293 291 292 290 291 292 292 292 291 291 290 289 291 293 292 291 290 288 287 286 284 284 283 278 279 280 279 279 279 278 276 276 276 275 275 274 274 275 276 275 275
292 291 290 288 287 287 287 288 290 291 291 290 290 290 290 291 292 292 290 288 287 286 284 283 284 282 279 279 279 280 279 278 276 275 276 276 275 276 274 274 276 276 276
291 288 287 286 286 286 286 286 287 289 289 288 287 287 287 288 289 288 288 287 286 285 284 283 284 284 281 280 280 280 278 277 276 275 276 276 275 274 274 276 276 274 274
288 287 286 284 284 284 285 286 287 287 286 286 286 286 285 286 285 286 286 286 286 286 285 284 284 285 282 280 279 279 279 279 278 277 277 276 276 275 274 274 274 274 274
288 287 285 285 284 283 284 285 287 286 284 284 285 286 285 286 284 285 286 286 286 287 286 285 286 288 285 282 280 279 279 279 278 278 277 276 276 276 274 273 272 273 273
288 288 287 286 282 281 283 286 286 286 283 282 283 283 285 288 287 286 286 286 285 286 285 285 286 286 284 282 282 281 280 280 280 278 277 276 275 274 274 273 272 272 272
292 289 289 287 284 283 281 284 284 284 283 282 281 283 285 286 288 287 286 286 285 285 284 283 284 286 284 283 285 284 281 280 279 279 278 276 274 275 274 273 272 269 269
295 291 289 289 286 284 281 280 282 283 281 281 281 282 284 286 289 288 287 287 287 287 286 284 283 285 285 284 286 287 285 281 278 278 278 277 275 274 276 275 272 269 268
296 294 291 288 287 285 284 282 281 281 281 280 282 282 282 286 286 287 288 286 285 286 286 286 284 284 285 285 287 288 286 283 281 279 278 277 275 274 274 275 274 272 269
295 294 293 290 290 288 287 284 282 282 282 282 283 282 282 284 284 285 288 288 286 284 284 284 285 285 285 284 284 286 287 283 280 280 279 276 274 273 274 275 276 275 274
Height
5901 5901 5900 5900 5900 5899 5899 5899 5899 5898 5898 5898 5897 5897 5897 5896 5896 5896 5896 5895 5895 5895 5895 5894 5893 5893 5892 5892 5892 5891 5891 5891 5891 5890 5890 5890 5889 5888 5888 5888 5888 5888 5888
5902 5901 5901 5900 5900 5900 5899 5899 5899 5898 5898 5898 5897 5897 5896 5896 5896 5895 5895 5895 5894 5894 5894 5893 5893 5892 5892 5891 5891 5890 5890 5889 5889 5889 5889 5888 5888 5887 5886 5886 5886 5886 5886
5902 5901 5900 5900 5900 5899 5899 5899 5898 5898 5898 5897 5897 5896 5896 5895 5895 5894 5894 5894 5893 5893 5893 5892 5892 5891 5891 5890 5890 5889 5889 5888 5888 5887 5887 5886 5886 5885 5885 5884 5884 5884 5883
5902 5901 5900 5900 5899 5899 5899 5898 5898 5898 5897 5897 5896 5896 5895 5895 5894 5894 5893 5893 5892 5892 5891 5891 5890 5890 5890 5889 5889 5888 5887 5887 5886 5886 5885 5884 5884 5883 5883 5882 5882 5881 5881
5901 5900 5899 5899 5898 5898 5898 5897 5897 5897 5896 5896 5895 5894 5894 5893 5893 5893 5892 5891 5891 5891 5890 5890 5889 5889 5888 5887 5887 5886 5886 5885 5884 5884 5883 5882 5882 5881 5880 5880 5880 5879 5879
5901 5900 5899 5898 5897 5897 5897 5896 5896 5896 5895 5895 5894 5893 5892 5892 5891 5891 5891 5890 5889 5889 5888 5888 5887 5887 5886 5885 5885 5884 5884 5883 5882 5881 5881 5880 5879 5879 5878 5878 5877 5877 5876
5899 5899 5898 5897 5896 5895 5895 5894 5894 5894 5893 5893 5892 5892 5891 5890 5890 5889 5889 5888 5888 5887 5886 5886 5885 5885 5884 5883 5883 5882 5881 5881 5880 5879 5878 5877 5877 5876 5875 5875 5874 5874 5873
5898 5897 5896 5895 5894 5893 5893 5893 5893 5892 5891 5891 5890 5890 5889 5889 5888 5887 5887 5886 5885 5885 5884 5883 5883 5882 5881 5881 5880 5879 5879 5878 5877 5876 5875 5874 5873 5873 5872 5871 5871 5870 5870
5896 5895 5894 5893 5893 5892 5892 5891 5890 5890 5889 5888 5888 5888 5887 5886 5885 5885 5884 5883 5882 5882 5881 5881 5880 5879 5878 5878 5877 5876 5875 5874 5873 5873 5872 5871 5870 5869 5869 5868 5867 5867 5866
5894 5893 5892 5892 5891 5890 5890 5889 5888 5887 5887 5886 5885 5885 5884 5883 5882 5882 5882 5880 5880 5879 5878 5877 5877 5876 5875 5874 5873 5872 5872 5871 5870 5869 5868 5867 5866 5865 5865 5864 5864 5863 5863
5893 5891 5890 5890 5889 5888 5887 5886 5886 5885 5884 5883 5883 5882 5881 5880 5879 5879 5878 5877 5876 5875 5874 5873 5873 5872 5871 5870 5870 5869 5868 5867 5865 5864 5864 5863 5862 5861 5861 5860 5859 5859 5859
5890 5889 5888 5887 5886 5885 5884 5883 5882 5882 5881 5880 5879 5878 5877 5876 5875 5875 5874 5873 5872 5871 5870 5869 5869 5868 5867 5866 5865 5864 5863 5862 5861 5860 5859 5858 5857 5857 5856 5855 5855 5854 5854
5888 5887 5885 5884 5883 5882 5881 5880 5879 5878 5878 5877 5876 5874 5873 5872 5871 5870 5870 5869 5868 5867 5866 5865 5864 5864 5863 5862 5861 5859 5858 5857 5856 5855 5854 5854 5853 5852 5852 5851 5850 5850 5849
5885 5884 5883 5881 5880 5879 5878 5877 5876 5875 5874 5873 5872 5871 5869 5868 5867 5866 5865 5864 5863 5862 5861 5860 5859 5858 5858 5857 5855 5854 5853 5852 5851 5850 5849 5849 5848 5847 5846 5846 5845 5845 5844
5882 5881 5879 5878 5877 5875 5874 5873 5872 5871 5870 5869 5868 5867 5865 5864 5862 5861 5860 5859 5858 5857 5856 5855 5854 5853 5852 5851 5850 5849 5848 5846 5846 5845 5844 5843 5843 5842 5841 5840 5840 5839 5839
5878 5877 5875 5874 5873 5872 5870 5869 5867 5866 5865 5864 5863 5862 5860 5859 5857 5856 5854 5853 5852 5852 5850 5849 5848 5847 5846 5845 5844 5843 5842 5841 5840 5840 5839 5838 5837 5836 5836 5835 5834 5833 5833
5874 5873 5871 5870 5869 5867 5866 5865 5863 5861 5860 5859 5857 5856 5855 5853 5852 5850 5849 5847 5846 5845 5844 5843 5841 5840 5839 5838 5837 5837 5836 5835 5834 5833 5833 5832 5831 5830 5829 5829 5828 5827 5827
5869 5868 5866 5865 5864 5862 5861 5860 5858 5856 5855 5853 5852 5850 5849 5847 5846 5844 5843 5841 5840 5838 5837 5836 5835 5833 5833 5832 5831 5830 5829 5828 5827 5827 5826 5825 5824 5824 5823 5822 5821 5821 5820
5863 5862 5861 5859 5858 5857 5855 5854 5852 5851 5849 5847 5845 5844 5842 5841 5840 5838 5836 5834 5833 5831 5830 5829 5828 5827 5825 5824 5823 5823 5822 5821 5820 5819 5819 5818 5817 5816 5816 5815 5814 5814 5813
5857 5856 5854 5853 5852 5851 5849 5847 5846 5844 5842 5841 5839 5837 5836 5834 5833 5831 5829 5827 5826 5824 5823 5822 5821 5820 5818 5817 5816 5815 5814 5813 5812 5812 5811 5810 5809 5808 5808 5807 5807 5806 5806
5850 5849 5847 5846 5845 5844 5842 5841 5839 5837 5836 5834 5833 5831 5829 5827 5826 5824 5822 5820 5819 5817 5816 5815 5814 5812 5811 5809 5808 5807 5806 5805 5804 5803 5803 5802 5801 5800 5800 5799 5799 5798 5798
5843 5841 5840 5838 5837 5835 5834 5833 5832 5830 5828 5827 5825 5824 5822 5821 5819 5817 5815 5813 5812 5810 5809 5808 5806 5805 5803 5802 5801 5799 5798 5797 5797 5796 5794 5794 5793 5792 5792 5791 5791 5790 5790
5836 5834 5832 5830 5829 5827 5826 5825 5824 5822 5821 5819 5818 5817 5815 5813 5812 5810 5808 5806 5805 5803 5802 5801 5799 5797 5796 5795 5793 5792 5790 5789 5788 5787 5786 5785 5784 5784 5783 5782 5782 5782 5781
5828 5826 5825 5823 5821 5819 5818 5816 5815 5814 5813 5812 5810 5809 5807 5806 5804 5802 5801 5799 5797 5796 5794 5793 5791 5790 5788 5787 5785 5784 5782 5781 5780 5779 5778 5777 5776 5775 5774 5773 5773 5773 5772
5821 5819 5817 5815 5813 5811 5809 5807 5806 5805 5804 5803 5802 5801 5799 5798 5796 5794 5793 5791 5790 5788 5787 5785 5784 5782 5781 5779 5778 5776 5774 5773 5772 5771 5769 5768 5768 5767 5766 5765 5764 5764 5764
5814 5811 5809 5807 5805 5803 5801 5799 5798 5797 5796 5795 5794 5792 5791 5789 5788 5786 5785 5784 5782 5780 5779 5777 5776 5775 5773 5772 5770 5768 5766 5765 5763 5762 5761 5760 5759 5758 5758 5757 5756 5755 5754